Back to catalog

CZ-6A DEB

AlivePO
NORAD 54611·DEBRIS·🇨🇳 China

Launched Nov 11, 2022 from Taiyuan Satellite Launch Center

Loading…

Next Passes (next 24 hours)

TLE

FreshSource: Space-Track

Epoch: Sep 12, 2026, 05:22 UTC

1 54611U 22151NM  26255.22370120  .00047654  00000-0  23064-2 0  9998
2 54611  98.6028   5.0219 0039084 223.8186 135.9942 15.17733129205024

Track CZ-6A DEB in real time with AllMySat

Download on the App Store